sat.trackr.live / text

‹ back to catalog

STARLINK-31978

NORAD 60016 · 2024-111A

PAYLOAD ACTIVE UNKNOWN

§ Identity

Operator
Country
US
Launch date
2024-06-08
Launch site
AFETR
Launch vehicle
Mass (kg)
RCS (m²)

Purposes: comms

External: N2YO · Heavens-Above · Gunter

§ Orbital elements

Epoch: 2026-05-25T02:46:19.267392Z

Period
94.01 min
Inclination
53.1616°
Eccentricity
0.0001172
Mean motion
15.31708236 rev/d
Perigee alt
469.9 km
Apogee alt
471.5 km
Semi-major
6,848.9 km
B*
2.4932e-5
RAAN
80.7122°
Arg perigee
97.6609°
Mean anomaly
262.4526°
Rev number
11,063

§ Raw data

STARLINK-319781 60016U 24111A   26145.11550078  .00000409  00000+0  24932-4 0  99932 60016  53.1616  80.7122 0001172  97.6609 262.4526 15.31708236110639

JSON: /api/v1/satellites/60016 · /tle

For live sub-satellite position, see the globe view (requires WebGL).

§ Visibility from observer

Set your observer location to see the next 7 days of passes ≥ 10°. The values pass through the URL so the page stays shareable.

No JS? Fill the form by hand. The geolocation button needs JavaScript.